Weather History for KODX - October, 2012

Change the Weather History Date:

Saturday, October 6, 2012

  Actual Average Record
Temperature  
Mean Temperature 35 °F 54 °F  
Max Temperature 47 °F 68 °F 89 °F (2007)
Min Temperature 23 °F 40 °F 19 °F (2000)
Degree Days  
Heating Degree Days 30 12  
Month to date heating degree days 108 64  
Since 1 July heating degree days 250 201  
Cooling Degree Days 0 1  
Month to date cooling degree days 0 6  
Year to date cooling degree days 1220 844  
Moisture  
Dew Point 17 °F    
Average Humidity 54    
Maximum Humidity 81    
Minimum Humidity 26    
Precipitation  
Precipitation 0.00 in 0.08 in 1.87 in (1911)
Month to date precipitation 0.01 0.46  
Year to date precipitation 11.06 21.81  
Sea Level Pressure  
Sea Level Pressure 30.40 in    
Wind  
Wind Speed 6 mph (NW)    
Max Wind Speed 14 mph    
Max Gust Speed 17 mph    
Visibility 10 miles    
Events      
T = Trace of Precipitation, MM = Missing Value Source: NWS Daily Summary

Daily Weather History Graph

Daily Weather History Graph

Search for Another Location

Airport or City:

Trip Planner

Search our weather history database for the weather conditions in past years. The results will help you decide how hot, cold, wet, or windy it might be!

Date:

Astronomy

Oct. 06, 2012 Rise Set
Actual Time 7:38 AM CDT 7:08 PM CDT
Civil Twilight 7:10 AM CDT 7:35 PM CDT
Nautical Twilight 6:38 AM CDT 8:08 PM CDT
Astronomical Twilight 6:06 AM CDT 8:40 PM CDT
Moon 11:21 PM CDT (10/6) 1:37 PM CDT (10/6)
Length of Visible Light 12h 25m
Length of Day
11h 29m
Waning Gibbous, 65% of the Moon is Illuminated
Oct 6
Waning Gibbous
Oct 8
Last Quarter
Oct 15
New
Oct 21
First Quarter
Oct 29
Full

Hourly Weather History & Observations

Time (CDT) Temp. Windchill Dew Point Humidity Pressure Visibility Wind Dir Wind Speed Gust Speed Precip Events Conditions
12:53 AM 35.1 °F 30.1 °F 21.0 °F 57% 30.39 in 10.0 mi NW 5.8 mph - N/A   Mostly Cloudy
1:53 AM 32.0 °F - 19.0 °F 59% 30.38 in 10.0 mi Calm Calm - N/A   Clear
2:53 AM 25.0 °F 17.1 °F 17.1 °F 72% 30.40 in 10.0 mi NNW 6.9 mph - N/A   Clear
3:53 AM 26.1 °F 16.8 °F 18.0 °F 71% 30.39 in 10.0 mi NW 9.2 mph - N/A   Clear
4:53 AM 24.8 °F 17.9 °F 17.6 °F 74% 30.34 in 10.0 mi NW 5.8 mph - N/A   Clear
5:53 AM 24.1 °F 17.0 °F 18.0 °F 77% 30.39 in 10.0 mi NW 5.8 mph - N/A   Clear
6:53 AM 24.1 °F 19.7 °F 18.0 °F 77% 30.40 in 10.0 mi NNW 3.5 mph - N/A   Clear
7:53 AM 25.0 °F 20.7 °F 19.0 °F 78% 30.41 in 10.0 mi NW 3.5 mph - N/A   Clear
8:53 AM 32.0 °F 28.7 °F 21.0 °F 64% 30.44 in 10.0 mi NW 3.5 mph - N/A   Clear
9:53 AM 37.0 °F 34.5 °F 19.9 °F 50% 30.46 in 10.0 mi West 3.5 mph - N/A   Clear
10:53 AM 39.0 °F 32.8 °F 19.0 °F 45% 30.45 in 10.0 mi North 9.2 mph - N/A   Partly Cloudy
11:53 AM 39.0 °F 34.0 °F 18.0 °F 43% 30.45 in 10.0 mi North 6.9 mph - N/A   Clear
12:53 PM 39.9 °F 33.4 °F 18.0 °F 41% 30.44 in 10.0 mi NW 10.4 mph - N/A   Partly Cloudy
1:53 PM 42.1 °F 35.7 °F 18.0 °F 38% 30.42 in 10.0 mi NNW 11.5 mph - N/A   Mostly Cloudy
2:53 PM 43.0 °F 36.4 °F 17.1 °F 35% 30.40 in 10.0 mi NNW 12.7 mph 17.3 mph N/A   Mostly Cloudy
3:53 PM 44.1 °F 38.6 °F 16.0 °F 32% 30.39 in 10.0 mi West 10.4 mph - N/A   Partly Cloudy
4:53 PM 46.0 °F 41.4 °F 14.0 °F 28% 30.38 in 10.0 mi NW 9.2 mph - N/A   Clear
5:53 PM 46.4 °F 41.1 °F 14.0 °F 27% 30.30 in 10.0 mi WNW 11.5 mph - N/A   Clear
6:53 PM 39.0 °F 35.7 °F 16.0 °F 39% 30.37 in 10.0 mi WNW 4.6 mph - N/A   Clear
7:53 PM 32.0 °F 25.6 °F 15.1 °F 50% 30.38 in 10.0 mi West 6.9 mph - N/A   Clear
8:53 PM 28.9 °F - 14.0 °F 54% 30.38 in 10.0 mi Calm Calm - N/A   Clear
9:53 PM 27.0 °F 19.5 °F 14.0 °F 58% 30.38 in 10.0 mi SW 6.9 mph - N/A   Clear
10:53 PM 26.1 °F 19.4 °F 15.1 °F 63% 30.38 in 10.0 mi NNW 5.8 mph - N/A   Clear
11:53 PM 26.1 °F - 18.0 °F 71% 30.38 in 10.0 mi Calm Calm - N/A   Clear